Louisburg, NC

2:07 PM EST on February 20, 2017 (GMT -0500)
Franklin County

Weather History for KLHZ - April, 2013

Change the Weather History Date:

Monday, April 29, 2013

  Actual Average (KRDU) Record (KRDU)
Temperature  
Mean Temperature 66 °F -  
Max Temperature 69 °F 73 °F 91 °F (1914)
Min Temperature 64 °F 48 °F 35 °F (1967)
Cooling Degree Days 2    
Growing Degree Days 16 (Base 50)    
Moisture  
Dew Point 65 °F    
Average Humidity 91    
Maximum Humidity 100    
Minimum Humidity 73    
Precipitation  
Precipitation 1.26 in - - ()
Sea Level Pressure  
Sea Level Pressure 30.04 in    
Wind  
Wind Speed 1 mph (SSE)    
Max Wind Speed 6 mph    
Max Gust Speed -    
Visibility 7 miles    
Events Rain    
Averages and records for this station are not official NWS values.
T = Trace of Precipitation, MM = Missing Value Source: NWS Daily Summary

Daily Weather History Graph

Daily Weather History Graph

Search for Another Location

Airport or City:

Trip Planner

Search our weather history database for the weather conditions in past years. The results will help you decide how hot, cold, wet, or windy it might be!

Date:

Astronomy

Apr. 29, 2013 Rise Set
Actual Time 6:22 AM EDT 7:59 PM EDT
Civil Twilight 5:55 AM EDT 8:26 PM EDT
Nautical Twilight 5:22 AM EDT 8:59 PM EDT
Astronomical Twilight 4:47 AM EDT 9:34 PM EDT
Moon No Moon Rise 9:44 AM EDT (4/29)
Length of Visible Light 14h 31m
Length of Day
13h 36m
Waning Gibbous, 80% of the Moon is Illuminated
Apr 29
Waning Gibbous
May 2
Last Quarter
May 9
New
May 18
First Quarter
May 25
Full

Hourly Weather History & Observations

Time (EDT) Temp. Dew Point Humidity Pressure Visibility Wind Dir Wind Speed Gust Speed Precip Events Conditions
12:15 AM - - N/A% 30.13 in 4.0 mi Calm Calm - 0.05 in Rain Rain
12:35 AM - - N/A% 30.12 in 3.0 mi ENE 3.5 mph - 0.14 in Rain Light Rain
12:55 AM - - N/A% 30.12 in 5.0 mi Calm Calm - 0.16 in Rain Light Rain
1:15 AM - - N/A% 30.11 in 4.0 mi Calm Calm - 0.02 in Rain Rain
1:35 AM - - N/A% 30.10 in 4.0 mi Calm Calm - 0.07 in Rain Light Rain
1:55 AM - - N/A% 30.10 in 4.0 mi Calm Calm - 0.08 in Rain Rain
2:15 AM - - N/A% 30.09 in 2.5 mi Calm Calm - 0.04 in Rain Rain
2:35 AM - - N/A% 30.08 in 4.0 mi Calm Calm - 0.07 in Rain Rain
2:55 AM - - N/A% 30.06 in 3.0 mi Calm Calm - 0.13 in Rain Light Rain
3:15 AM - - N/A% 30.06 in 3.0 mi Calm Calm - 0.06 in Rain Rain
3:35 AM - - N/A% 30.07 in 3.0 mi Calm Calm - 0.11 in Rain Rain
3:55 AM - - N/A% 30.06 in 2.5 mi Calm Calm - 0.17 in Rain Rain
4:15 AM - - N/A% 30.05 in 3.0 mi Calm Calm - 0.04 in Rain Light Rain
4:35 AM - - N/A% 30.05 in 2.5 mi Calm Calm - 0.08 in Rain Rain
4:55 AM - - N/A% 30.05 in 3.0 mi Calm Calm - 0.15 in Rain Light Rain
5:15 AM - - N/A% 30.04 in 5.0 mi Calm Calm - 0.02 in Rain Light Rain
5:35 AM - - N/A% 30.04 in 3.0 mi Calm Calm - 0.09 in Rain Rain
5:55 AM - - N/A% 30.04 in 2.5 mi Calm Calm - 0.17 in Rain Rain
6:15 AM - - N/A% 30.04 in 5.0 mi Calm Calm - 0.03 in Rain Rain
6:35 AM - - N/A% 30.05 in 3.0 mi Calm Calm - 0.08 in Rain Heavy Rain
6:55 AM - - N/A% 30.06 in 3.0 mi Calm Calm - 0.16 in Rain Heavy Rain
7:15 AM - - N/A% 30.06 in 1.5 mi Calm Calm - 0.10 in Rain Rain
7:35 AM - - N/A% 30.06 in 5.0 mi South 3.5 mph - 0.14 in Rain Rain
7:55 AM - - N/A% 30.06 in 7.0 mi SSE 3.5 mph - 0.14 in   Drizzle
8:15 AM - - N/A% 30.06 in 7.0 mi SSE 3.5 mph - 0.01 in Rain Light Rain
8:35 AM - - N/A% 30.06 in 7.0 mi Calm Calm - 0.02 in Rain Light Rain
8:55 AM - - N/A% 30.06 in 7.0 mi South 3.5 mph - 0.03 in Rain Rain
9:15 AM - - N/A% 30.06 in 7.0 mi Calm Calm - 0.01 in Rain Rain
9:35 AM - - N/A% 30.06 in 7.0 mi Calm Calm - 0.01 in   Light Drizzle
9:55 AM - - N/A% 30.06 in 10.0 mi South 3.5 mph - 0.01 in   Overcast
10:15 AM - - N/A% 30.06 in 10.0 mi South 3.5 mph - N/A   Light Drizzle
10:35 AM - - N/A% 30.06 in 10.0 mi Calm Calm - N/A   Overcast
10:55 AM - - N/A% 30.06 in 10.0 mi SSE 3.5 mph - N/A   Overcast
11:15 AM - - N/A% 30.06 in 10.0 mi Calm Calm - N/A   Overcast
11:35 AM - - N/A% 30.07 in 10.0 mi Calm Calm - N/A   Overcast
11:55 AM - - N/A% 30.07 in 10.0 mi South 3.5 mph - N/A   Overcast
12:15 PM - - N/A% 30.06 in 10.0 mi Calm Calm - N/A   Overcast
12:35 PM - - N/A% 30.05 in 10.0 mi Calm Calm - N/A   Overcast
12:55 PM 64.4 °F 64.4 °F 100% 30.05 in 10.0 mi Calm Calm - N/A   Overcast
1:15 PM 64.4 °F 64.4 °F 100% 30.05 in 10.0 mi Calm Calm - N/A   Overcast
1:35 PM - - N/A% 30.05 in 10.0 mi Calm Calm - N/A   Overcast
1:55 PM - - N/A% 30.04 in 5.0 mi Calm Calm - 0.03 in Rain Light Rain
2:15 PM - - N/A% 30.03 in 10.0 mi Calm Calm - 0.02 in Rain Light Rain
2:35 PM - - N/A% 30.03 in 10.0 mi Calm Calm - 0.02 in   Mostly Cloudy
2:55 PM - - N/A% 30.03 in 10.0 mi Calm Calm - 0.02 in   Overcast
3:15 PM 68.0 °F 68.0 °F 100% 30.02 in 10.0 mi Calm Calm - N/A   Mostly Cloudy
3:35 PM 68.0 °F 68.0 °F 100% 30.02 in 10.0 mi South 5.8 mph - N/A   Mostly Cloudy
3:55 PM - - N/A% 30.00 in 10.0 mi Calm Calm - N/A   Overcast
4:15 PM 68.0 °F 68.0 °F 100% 30.00 in 10.0 mi Calm Calm - N/A   Mostly Cloudy
4:35 PM 68.0 °F 62.6 °F 83% 29.99 in 10.0 mi Calm Calm - N/A   Mostly Cloudy
4:55 PM 69.8 °F 60.8 °F 73% 29.99 in 10.0 mi Calm Calm - N/A   Scattered Clouds
5:15 PM 68.0 °F 62.6 °F 83% 29.99 in 10.0 mi Calm Calm - N/A   Scattered Clouds
5:35 PM 69.8 °F 62.6 °F 78% 29.99 in 10.0 mi Calm Calm - N/A   Clear
5:55 PM 68.0 °F 62.6 °F 83% 29.99 in 10.0 mi Calm Calm - N/A   Clear
6:15 PM 68.0 °F 68.0 °F 100% 29.99 in 10.0 mi Calm Calm - N/A   Clear
6:35 PM 69.8 °F 62.6 °F 78% 29.99 in 10.0 mi Calm Calm - N/A   Clear
6:55 PM 68.0 °F 64.4 °F 88% 29.99 in 10.0 mi Calm Calm - N/A   Clear
7:15 PM 66.2 °F 66.2 °F 100% 30.00 in 10.0 mi Calm Calm - 0.01 in   Clear
7:35 PM 66.2 °F 66.2 °F 100% 30.00 in 10.0 mi Calm Calm - 0.01 in   Clear
7:55 PM - - N/A% 30.00 in 10.0 mi Calm Calm - 0.01 in   Clear
8:15 PM - - N/A% 30.01 in 10.0 mi Calm Calm - N/A   Clear
8:35 PM - - N/A% 30.01 in 10.0 mi Calm Calm - N/A   Clear
8:55 PM - - N/A% 30.02 in 7.0 mi Calm Calm - N/A   Scattered Clouds
9:15 PM - - N/A% 30.02 in 5.0 mi Calm Calm - N/A   Haze
9:35 PM - - N/A% 30.03 in 7.0 mi Calm Calm - N/A   Overcast
9:55 PM - - N/A% 30.03 in 7.0 mi Calm Calm - N/A   Overcast
10:15 PM - - N/A% 30.03 in 7.0 mi Calm Calm - N/A   Mostly Cloudy
10:35 PM - - N/A% 30.03 in 5.0 mi Calm Calm - N/A   Haze
10:55 PM - - N/A% 30.03 in 5.0 mi Calm Calm - N/A   Haze
11:35 PM - - N/A% 30.03 in 4.0 mi Calm Calm - N/A   Haze
11:55 PM - - N/A% 30.03 in 4.0 mi Calm Calm - N/A   Haze